Flag for Switzerland Weather past 2 weeks in Davos, Graubünden, Switzerland

Now
28 °F

Snow. Low clouds.


Feels Like: 28 °F
Forecast: -5 / 21 °F
Wind: 1 mph from Northeast

Location: Chur-Ems

Current Time: Feb 1, 2015 at 2:18:11 PM

Latest Report: Feb 1, 2015 at 1:00 PM


Visibility: 1 mi

Pressure: 29.44 "Hg

Humidity: 84%

Dew point: 24 °F

Location of DavosLocation

Historic Weather in Davos — Graph

°F

Davos temperature yesterday

Maximum temperature yesterday: 37 °F (at 4:00 PM)
Minimum temperature yesterday: 26 °F (at 9:00 AM)
Average temperature yesterday: 31 °F

Past Weeks' High & Low Weather Summary

 TemperatureHumidityPressure
High45 °F (Jan 21, 2:00 PM)96% (Jan 27, 5:00 AM)30.49 "Hg (Jan 27, 5:00 AM)
Low23 °F (Feb 1, 6:00 AM)41% (Jan 26, 1:00 PM)28.88 "Hg (Jan 30, 3:00 AM)
Average33 °F75%29.89 "Hg
* Reported Jan 17 1:00 PM — Feb 1 1:00 PM, Davos, Weather by CustomWeather, © 2014

Note: Actual official high and low records may vary slightly from our data, if they occured in-between our weather recording intervals... More about our weather records

Advertising

Davos weather history for previous 24 hours

 ConditionsComfort  
Time TempWeatherWind HumidityBarometerVisibility
1:00 PM
Feb 1
28 °FSnow. Low clouds.1 mph84%29.44 "Hg1 mi
12:00 PM32 °FChilly.3 mph53%29.38 "HgN/A
11:00 AM31 °FChilly.2 mph55%29.38 "HgN/A
10:00 AM29 °FOvercast.5 mph56%29.38 "Hg12 mi
9:00 AM27 °FChilly.3 mph61%29.38 "HgN/A
8:00 AM25 °FCold.7 mph69%29.35 "HgN/A
7:00 AM24 °FPassing clouds.6 mph71%29.35 "Hg12 mi
6:00 AM23 °FCold.3 mph73%29.32 "HgN/A
5:00 AM26 °FChilly.5 mph72%29.29 "HgN/A
4:00 AM27 °FOvercast.3 mph75%29.29 "Hg10 mi
3:00 AM28 °FChilly.7 mph76%29.29 "HgN/A
2:00 AM27 °FChilly.3 mph81%29.29 "HgN/A
1:00 AM28 °FPassing clouds.2 mph82%29.29 "Hg11 mi
12:00 AM28 °FChilly.1 mph82%29.29 "HgN/A
11:00 PM
Jan 31
30 °FChilly.3 mph78%29.26 "HgN/A
10:00 PM28 °FOvercast.No wind82%29.26 "Hg11 mi
9:00 PM30 °FChilly.No wind78%29.23 "HgN/A
8:00 PM31 °FChilly.2 mph76%29.23 "HgN/A
7:00 PM32 °FOvercast.3 mph70%29.21 "Hg11 mi
6:00 PM32 °FChilly.1 mph69%29.18 "HgN/A
5:00 PM34 °FChilly.5 mph65%29.15 "HgN/A
4:00 PM37 °FOvercast.2 mph51%29.12 "Hg12 mi
3:00 PM36 °FChilly.3 mph51%29.12 "HgN/A
2:00 PM36 °FChilly.3 mph51%29.12 "HgN/A
Weather by CustomWeather, © 2014

See weather overviewHow to use our weather pages